GFSGBSN_925_rhum_114.txt.gz
RH
75 73 73 74 79 72 85 93 93 83 84 84 87 87 87 85 88 86 75 68 70 85 86 73 73 75 87 78 86 79 92 78 45 41 38 32 31 38 48 41 32 42 40 43 41 34 32
78 79 77 78 77 78 81 90 97 95 90 88 86 87 87 88 90 86 78 70 74 78 86 74 63 91 85 90 96 89 86 48 44 41 34 32 33 32 43 40 40 42 44 42 31 30 30
82 81 80 81 81 84 83 86 93 97 94 89 86 85 90 90 89 90 78 78 81 86 90 70 62 82 86 100 95 82 52 47 42 39 36 32 30 34 36 42 35 38 38 35 33 33 36
84 80 84 86 89 92 87 87 87 91 91 66 90 90 89 92 92 76 85 54 67 77 71 83 77 78 98 96 95 77 48 38 32 30 29 30 27 38 38 35 36 37 40 38 36 35 39
87 86 83 86 87 86 97 90 88 87 89 94 97 96 95 91 86 85 84 79 74 76 78 72 68 74 93 84 86 87 55 46 32 29 27 24 28 39 40 54 65 52 60 42 41 39 44
98 94 89 86 86 89 92 94 90 91 91 93 89 77 80 85 63 62 74 73 71 69 69 64 66 77 83 96 91 81 60 47 39 35 35 44 53 52 56 63 55 52 61 43 41 44 44
94 95 95 95 94 95 96 94 92 93 94 95 96 65 86 97 72 72 69 68 78 87 85 96 94 86 88 86 71 68 59 45 37 42 46 55 64 66 50 46 53 47 54 48 47 47 51
82 85 91 94 94 95 96 98 93 94 92 87 77 68 83 76 74 78 74 91 95 82 97 87 84 86 94 94 66 53 43 45 52 51 51 67 69 48 50 49 49 47 57 63 58 53 55
81 93 94 97 99 100 98 97 96 90 94 92 76 71 84 73 68 71 81 94 81 75 96 94 91 91 95 86 81 68 57 48 54 57 63 69 55 50 54 60 58 60 63 67 68 63 60
90 94 98 98 100 100 99 97 96 81 74 72 77 75 71 66 61 80 89 86 81 86 91 99 96 92 86 84 82 57 52 54 47 64 63 63 50 58 67 65 61 69 56 60 70 76 68
91 93 100 100 93 100 99 100 91 85 68 68 74 72 63 62 73 75 71 78 89 89 90 96 95 84 84 81 83 54 42 50 56 58 52 70 57 59 71 63 56 69 56 63 64 74 79
88 93 96 100 99 97 100 100 99 79 65 71 77 77 77 74 73 78 75 74 84 79 96 100 92 89 72 68 61 53 56 49 49 66 65 63 50 57 60 56 56 55 65 70 75 80 86
93 96 96 96 99 99 100 98 100 65 57 61 65 68 65 67 69 74 65 72 84 95 96 99 95 76 75 81 61 61 60 64 75 74 92 70 68 58 55 71 61 62 79 91 80 96 79
97 98 97 96 96 100 98 100 67 51 49 51 54 59 59 62 63 65 62 79 89 95 100 84 83 76 81 70 59 59 62 70 57 76 94 90 78 71 58 64 73 80 78 89 81 97 91
95 99 98 75 57 86 100 98 73 50 48 48 53 57 65 64 66 65 78 95 89 83 77 82 77 69 69 61 61 64 64 70 62 63 81 90 92 64 62 49 61 78 89 71 89 85 96
95 99 97 67 52 51 73 99 55 46 56 62 64 69 74 62 67 72 86 88 77 60 54 62 70 55 69 66 66 63 65 58 63 55 60 72 94 69 62 59 59 65 68 88 90 91 92
92 95 100 62 55 46 44 49 57 43 44 59 63 73 75 67 74 81 93 77 63 53 56 61 63 53 56 62 62 63 65 60 60 58 60 63 71 77 70 82 80 76 84 74 75 88 92
70 92 93 76 56 49 44 41 53 46 48 57 76 80 74 74 84 91 91 68 57 56 53 54 56 58 56 58 60 72 71 64 56 59 67 63 77 97 84 64 65 68 78 74 86 78 82
76 59 48 62 64 51 44 39 45 58 54 58 76 78 80 89 86 91 64 60 58 60 56 55 60 56 51 57 63 63 66 58 57 61 65 62 76 89 80 64 55 68 69 66 67 75 80
72 74 51 45 63 60 50 39 36 54 53 61 75 76 77 79 78 63 61 61 59 52 51 48 50 50 52 50 53 62 67 59 57 64 63 61 78 73 74 58 68 72 70 72 69 90 80
68 71 70 44 54 60 54 42 31 42 48 56 74 75 72 77 60 59 56 56 57 61 54 46 48 48 51 51 49 56 63 63 62 66 64 70 83 76 76 74 71 70 65 69 80 69 70
72 68 70 62 38 61 57 49 35 31 44 47 72 68 78 66 59 50 58 58 59 59 55 53 50 53 47 50 50 57 52 64 69 72 72 72 70 74 83 65 70 79 70 66 63 67 67
74 73 74 73 47 44 59 55 48 34 33 58 68 61 59 58 59 56 57 57 58 59 54 50 52 56 54 51 54 51 57 63 58 68 75 75 80 80 77 66 72 54 53 60 61 60 52
84 75 77 76 73 37 54 58 55 51 42 52 70 77 71 56 59 55 51 50 54 53 56 53 50 54 52 52 53 59 64 66 68 66 62 71 70 84 90 73 46 24 34 40 51 46 46
95 85 77 80 76 68 39 59 58 56 55 47 62 72 77 64 61 51 50 49 48 50 52 50 50 51 57 53 57 51 59 55 62 65 68 65 75 82 88 89 57 26 42 48 45 38 41
96 96 86 80 83 76 62 40 61 59 56 55 58 68 78 63 42 46 50 48 56 60 57 52 50 54 58 68 60 46 39 40 53 68 56 74 72 78 85 81 51 21 28 35 26 25 18
98 98 95 87 82 83 75 58 45 59 60 57 57 57 76 80 73 46 49 51 58 60 58 58 52 61 55 73 64 61 60 41 47 56 77 82 85 93 93 95 81 53 36 33 24 14 26
98 91 90 94 88 85 82 74 56 48 54 61 67 64 60 84 77 59 47 56 62 65 51 45 51 60 78 67 65 60 61 52 51 48 72 80 92 97 92 97 80 49 44 31 26 31 32
89 96 90 88 87 85 86 81 74 50 42 57 66 74 72 73 64 68 59 57 53 52 61 68 48 64 64 71 74 70 61 66 59 42 53 55 52 69 73 68 46 47 37 35 36 33 29

GFSGBSN_925_rhum_117.txt.gz
RH
80 75 80 83 83 85 80 92 97 93 87 87 89 88 88 88 88 76 74 77 76 78 76 65 87 76 92 82 97 92 90 79 53 42 37 35 33 42 43 39 39 46 46 45 41 34 34
80 80 84 86 94 87 86 85 95 96 91 89 88 87 88 89 92 68 65 72 78 87 80 67 71 89 77 86 99 94 62 50 44 39 35 30 31 37 44 42 41 44 48 42 32 32 35
82 83 82 86 85 87 90 88 87 93 85 89 88 88 90 92 91 81 73 73 78 84 74 62 71 78 84 96 100 73 58 40 40 38 34 33 31 34 38 43 37 39 42 36 37 33 41
92 90 87 84 86 90 86 90 89 90 93 97 94 95 96 90 78 81 71 68 72 74 78 75 72 72 99 98 97 80 44 36 32 29 30 30 29 40 39 37 41 37 41 35 37 35 43
96 95 93 93 92 96 97 90 92 89 91 93 96 96 90 78 74 70 69 70 76 76 71 69 65 70 98 89 93 86 60 59 38 26 28 25 30 42 44 51 62 50 54 40 42 38 46
92 88 91 93 91 93 97 94 91 92 94 95 72 87 89 73 72 81 76 70 68 62 60 60 64 71 81 96 94 89 59 54 42 31 36 46 52 53 62 50 56 45 67 44 45 45 45
86 93 94 86 90 91 95 95 95 84 83 91 69 91 93 62 83 78 70 61 78 87 85 92 92 83 85 89 79 87 76 65 40 41 50 61 61 65 50 48 49 50 50 50 52 48 53
92 92 98 89 93 95 93 99 92 96 88 80 69 94 87 84 73 69 66 93 96 80 96 84 79 82 87 91 74 75 75 65 46 56 50 64 67 48 50 48 49 50 55 64 61 53 59
92 90 98 95 91 92 84 90 98 90 88 83 71 89 82 76 74 70 87 96 80 77 97 92 90 90 96 90 83 73 74 51 57 64 60 67 54 51 52 56 62 66 65 66 63 63 62
94 95 94 99 93 89 86 87 89 81 67 76 72 79 75 69 65 77 87 86 80 86 92 99 95 95 80 84 73 54 54 50 53 64 64 66 52 60 65 66 61 65 58 65 68 71 58
91 98 96 98 98 90 91 88 92 73 63 67 69 71 64 58 62 69 75 80 82 79 90 92 94 90 85 79 77 54 46 51 60 66 48 67 58 66 71 63 59 67 58 65 66 79 77
96 99 98 99 99 99 93 99 98 74 68 70 70 72 73 68 69 74 75 74 77 79 95 100 92 94 92 69 68 55 52 49 51 66 67 63 50 60 60 59 58 59 69 72 82 80 79
96 98 99 99 98 98 99 99 100 66 62 62 64 67 65 65 65 70 66 69 84 94 92 96 98 93 79 82 61 60 63 68 73 73 90 75 73 61 57 69 62 67 78 83 63 86 70
96 98 98 99 99 90 96 95 74 51 54 55 58 58 58 64 68 67 62 79 89 89 98 82 82 70 79 65 61 61 61 73 67 72 92 86 73 69 58 64 72 79 73 78 43 94 92
96 88 99 96 72 81 56 88 48 49 50 52 55 59 62 64 68 70 74 96 88 82 79 90 84 73 70 62 62 63 66 70 63 66 72 93 88 65 64 58 60 71 88 72 89 87 95
94 93 67 100 87 57 67 48 50 48 52 59 66 72 75 64 66 69 86 90 79 62 67 67 71 61 73 67 68 64 67 61 63 58 60 72 94 68 62 57 60 65 72 84 88 90 93
76 58 61 57 74 65 49 48 52 44 48 60 67 73 77 70 77 79 93 78 63 55 56 62 66 56 63 64 63 64 68 62 61 61 61 70 73 69 64 80 82 81 83 77 79 84 91
75 56 41 56 57 57 49 43 54 52 47 53 76 78 80 76 83 91 91 67 57 58 56 57 59 57 60 59 62 73 68 66 57 59 69 66 80 96 82 65 67 70 78 77 86 76 86
73 71 47 44 59 52 51 46 51 60 55 61 79 80 81 87 85 91 66 60 57 58 56 55 60 56 53 59 67 67 68 62 60 65 68 63 75 88 74 67 66 76 76 72 71 78 84
70 72 65 41 57 56 50 44 52 55 58 61 72 75 74 81 79 66 63 62 59 54 51 49 51 51 50 53 59 67 68 61 61 67 63 59 79 69 65 49 69 79 74 75 72 92 83
68 72 72 54 41 59 53 44 44 52 53 55 76 75 74 75 63 62 58 56 60 58 52 49 48 49 52 52 53 65 67 67 65 66 67 69 74 82 79 78 71 70 69 77 83 70 76
73 74 75 70 43 51 56 48 41 55 60 50 69 64 76 70 64 52 58 58 58 60 54 52 48 52 48 51 51 59 61 64 64 74 70 76 70 74 86 68 80 82 77 74 72 74 73
78 75 77 71 63 40 57 53 43 42 54 62 75 68 54 63 63 57 56 55 55 58 54 51 52 55 56 51 52 52 57 63 60 77 79 80 82 80 78 62 72 56 62 58 63 67 59
93 79 76 77 70 53 39 57 51 43 45 64 78 70 66 51 62 57 51 51 54 55 58 55 51 54 50 53 55 61 65 65 66 65 67 79 72 85 91 71 37 22 37 48 56 51 53
98 93 80 77 76 68 43 40 56 52 47 48 69 75 71 58 60 53 53 49 50 53 53 50 51 53 59 54 57 49 58 60 67 68 73 68 76 82 88 89 51 21 41 50 46 29 43
98 100 95 82 79 75 68 37 39 54 50 48 55 71 77 52 42 43 55 51 56 59 55 55 53 58 60 67 58 41 34 40 61 71 78 78 75 77 86 79 38 17 28 36 30 24 15
93 98 95 95 86 82 74 70 39 36 52 51 61 60 76 73 64 50 50 53 61 64 57 58 54 63 54 71 60 58 59 42 51 62 84 87 89 93 92 93 80 54 38 33 23 14 22
77 92 93 93 93 87 82 75 68 43 35 52 66 66 63 80 72 65 50 60 68 66 50 43 50 58 77 64 63 61 60 54 52 47 72 83 94 98 92 98 71 51 45 29 24 25 32
69 86 92 91 92 92 88 84 75 68 42 38 61 73 72 74 66 68 65 65 59 50 58 71 46 64 67 70 76 70 62 73 60 41 59 55 56 69 76 67 45 46 42 34 38 39 40

GFSGBSN_925_rhum_123.txt.gz
RH
94 89 91 91 92 96 94 87 90 92 89 83 85 89 91 89 86 82 82 87 81 88 90 76 73 79 91 87 94 98 88 64 54 44 38 40 40 43 43 43 44 51 49 41 39 38 34
96 90 91 91 93 96 95 91 88 92 92 91 90 90 90 90 89 73 74 87 92 86 77 84 81 85 81 90 98 92 80 50 46 38 34 30 38 38 45 51 48 50 46 39 40 40 43
89 91 90 92 93 95 93 92 91 89 90 92 92 92 95 91 87 85 80 82 78 69 76 81 79 67 82 100 96 75 73 54 42 33 37 34 32 36 43 49 45 39 39 37 44 39 44
86 83 94 92 94 95 87 96 94 92 91 89 93 93 81 90 84 77 79 76 76 70 72 75 72 73 99 96 90 70 70 43 36 32 31 31 27 42 41 42 40 36 35 32 38 39 48
85 84 94 93 94 94 88 95 95 95 94 85 89 94 79 96 90 78 77 79 64 61 61 66 64 73 99 93 92 68 88 85 37 33 30 28 35 45 37 48 58 48 50 37 39 42 44
89 86 94 85 92 90 96 88 96 96 95 91 96 94 79 81 74 69 64 60 64 56 59 60 70 81 79 96 97 81 78 70 45 35 38 41 48 47 53 46 60 44 51 42 40 45 46
88 88 87 92 92 81 80 95 96 96 85 77 81 92 75 70 62 60 56 56 73 84 81 95 92 90 90 91 87 81 73 74 39 50 47 54 61 66 54 45 38 52 43 50 56 53 57
90 93 89 95 87 88 80 93 93 88 69 66 63 70 67 69 70 61 68 93 88 83 94 81 80 83 95 95 83 79 73 54 49 57 44 63 73 57 55 54 52 51 53 70 62 58 60
93 96 91 90 94 92 82 83 81 68 66 56 67 65 63 68 64 61 76 93 78 76 95 91 86 90 96 86 90 84 75 65 56 63 60 68 60 55 56 63 63 75 58 59 55 60 60
97 94 98 91 91 94 92 84 84 67 66 56 51 57 52 57 60 72 86 82 79 82 90 99 93 92 83 86 83 70 74 67 58 67 68 70 60 60 65 71 55 66 65 68 66 53 45
97 98 99 92 95 95 99 95 67 72 65 60 59 64 64 55 59 70 73 80 79 69 90 97 93 82 83 82 80 65 57 53 66 66 51 72 67 67 74 68 59 74 67 71 71 74 65
100 99 98 95 97 98 99 99 63 57 66 66 71 72 67 61 60 70 72 72 62 79 96 100 93 89 81 74 75 59 54 53 53 65 72 69 57 67 64 71 68 70 64 65 72 70 63
100 98 99 97 94 98 99 100 93 51 54 61 66 64 64 69 70 74 72 63 84 93 96 100 98 84 72 71 66 62 69 75 60 65 85 72 72 64 60 70 63 66 66 72 64 74 62
93 99 99 93 95 95 97 99 92 54 50 50 54 57 60 71 76 74 65 75 88 94 97 94 85 78 75 64 66 64 68 79 71 70 87 78 66 65 63 62 68 80 62 70 44 53 73
94 95 94 84 68 90 88 88 100 58 51 54 58 66 70 70 74 76 74 96 92 90 89 88 71 74 74 66 65 69 73 75 70 61 58 91 97 68 67 65 58 81 83 65 87 90 90
100 94 93 64 62 52 57 57 68 55 56 55 64 70 78 72 71 66 85 90 79 71 76 72 73 66 77 73 70 69 70 65 70 63 58 72 96 70 68 63 71 64 70 73 83 71 69
79 98 86 51 63 60 54 45 45 51 57 61 68 75 75 75 68 77 93 78 68 60 62 67 63 67 68 70 69 69 68 66 62 69 64 70 73 77 66 78 85 85 86 83 76 76 76
70 78 88 48 58 62 57 47 47 62 59 67 75 74 79 76 82 92 92 70 59 62 60 62 60 57 63 65 72 74 70 66 60 63 72 70 77 95 74 69 69 71 76 74 71 75 84
72 76 73 58 45 59 57 50 46 52 64 64 81 82 74 74 83 92 68 62 61 59 58 60 61 57 57 65 74 74 75 68 64 63 71 68 79 87 74 67 76 83 81 73 72 76 87
73 76 74 70 42 52 54 50 42 55 57 62 71 71 72 84 82 69 63 66 61 57 55 52 55 52 51 61 68 77 78 70 67 70 67 60 77 62 59 46 78 92 86 78 72 88 79
78 77 78 73 57 41 54 50 43 59 58 57 79 78 74 74 67 68 63 62 60 59 55 54 52 54 53 59 58 72 72 75 74 72 71 61 62 80 74 70 68 72 77 88 82 73 74
92 80 79 78 71 43 48 54 47 57 70 54 63 67 77 75 68 56 57 59 57 62 54 50 52 55 52 54 49 62 70 69 63 77 73 78 67 74 85 68 78 81 78 80 83 78 79
99 94 84 80 76 65 38 51 51 47 67 62 78 73 52 70 67 55 52 57 55 56 56 52 52 54 53 54 54 60 63 70 64 77 79 76 78 78 63 70 69 51 64 76 78 78 70
99 99 95 84 81 73 55 38 52 46 48 57 72 69 63 47 69 60 51 56 57 59 53 59 53 46 58 65 64 61 74 74 72 80 73 81 75 84 90 60 31 20 42 56 64 61 70
98 99 99 95 84 81 73 45 37 51 45 50 69 67 65 45 64 55 56 53 55 55 56 51 56 60 60 52 54 48 60 66 81 84 73 73 78 86 85 82 44 26 41 49 45 26 46
98 98 99 97 93 84 80 71 44 37 50 50 60 68 65 46 36 47 59 53 57 58 55 61 62 63 57 66 53 37 36 48 79 76 80 80 77 75 89 72 24 14 28 41 38 21 23
99 98 100 98 95 90 85 79 71 48 42 53 62 66 65 57 54 51 55 60 60 60 52 59 63 65 54 64 51 52 54 46 63 75 96 91 90 93 91 91 70 46 39 40 22 21 23
98 99 87 90 94 93 90 86 80 74 59 52 58 60 62 70 62 67 57 63 71 63 47 51 57 60 75 58 56 60 59 59 54 55 83 90 95 96 88 95 57 52 44 31 26 39 39
97 100 82 88 93 94 95 93 88 84 76 63 54 69 70 70 61 73 74 71 65 55 58 71 44 59 66 63 72 67 64 77 59 37 65 58 61 69 74 64 45 46 37 40 44 48 49

GFSGBSN_925_rhum_126.txt.gz
RH
90 81 90 91 92 96 92 90 88 91 90 90 88 90 89 89 88 81 88 84 88 82 73 66 72 82 80 73 89 95 82 74 85 66 42 39 42 36 39 33 37 38 36 32 30 28 26
90 88 84 91 94 95 95 92 89 88 90 90 88 92 92 90 90 82 86 85 77 81 84 89 81 85 67 79 94 80 73 68 57 47 40 37 35 30 33 36 34 38 31 30 28 30 30
89 88 94 93 94 97 96 95 92 89 89 89 91 92 94 93 93 85 88 85 81 92 92 91 88 73 75 98 99 76 71 78 68 40 33 33 28 27 30 38 29 28 31 26 31 30 33
89 91 91 96 92 95 90 96 93 92 91 91 93 94 96 77 88 70 76 78 73 73 78 74 68 69 98 96 94 85 70 78 47 37 36 34 28 30 31 29 26 26 25 32 30 31 38
84 91 85 94 93 95 96 95 94 95 92 96 94 96 92 73 70 65 60 73 62 68 66 65 71 63 99 94 86 72 76 88 62 38 31 30 30 30 31 32 40 28 48 31 32 35 34
93 93 93 80 94 94 95 96 94 97 82 96 96 69 71 65 64 60 54 58 61 66 68 62 72 71 80 91 84 86 85 83 36 30 28 30 29 29 28 30 55 34 39 28 29 37 35
87 87 94 86 82 96 96 91 95 95 67 77 59 63 65 69 55 53 50 55 55 63 78 94 96 90 91 95 87 80 75 66 35 27 33 40 33 37 30 31 27 28 28 36 42 48 42
91 93 93 95 84 92 96 95 77 74 62 64 67 64 66 67 62 66 65 76 87 75 94 82 82 83 92 96 76 63 67 36 32 38 36 44 51 46 40 34 28 25 29 43 48 50 41
88 96 95 96 96 88 97 95 64 58 59 52 58 59 60 60 60 59 78 87 78 78 88 88 90 91 96 84 77 66 63 41 38 43 36 40 50 46 38 37 33 38 26 37 50 47 43
93 96 99 98 93 89 96 98 83 51 47 48 53 61 58 51 59 63 73 78 76 76 96 100 93 95 83 77 71 60 66 49 45 48 44 50 49 44 42 51 37 39 51 45 43 32 30
98 98 100 96 97 93 93 98 95 66 48 48 60 63 59 55 59 68 74 78 77 69 85 94 92 84 76 72 62 50 54 40 49 51 45 65 52 49 54 64 51 56 50 48 45 40 42
99 99 99 100 97 95 98 99 100 96 66 59 57 59 56 58 60 73 75 76 68 83 92 99 92 89 72 63 62 50 46 41 43 49 50 60 55 57 60 57 51 52 46 49 46 45 50
93 97 97 99 99 98 82 95 100 63 64 65 60 60 59 62 70 73 75 63 90 86 93 98 99 78 53 52 54 50 52 50 46 73 88 52 61 56 52 53 51 50 48 82 72 84 51
96 96 93 93 98 100 98 73 90 57 55 59 61 61 68 67 72 75 72 62 84 93 96 91 76 59 60 50 56 55 52 50 49 40 60 72 69 58 57 54 48 56 49 68 81 42 48
97 93 77 58 64 71 77 64 65 57 56 56 61 69 73 70 70 70 58 94 89 78 72 71 63 57 61 53 49 53 59 58 58 48 48 65 92 61 60 54 54 58 59 50 66 64 54
79 92 78 48 61 56 56 53 50 52 53 55 67 74 78 74 73 67 67 86 69 65 66 62 61 55 58 56 52 49 55 58 61 56 47 54 81 62 63 56 57 54 51 57 60 60 44
72 78 88 45 56 59 53 50 49 55 59 57 71 57 77 74 62 50 93 74 60 55 57 60 55 56 57 58 56 51 57 59 55 61 50 49 50 71 62 62 54 62 62 58 50 56 49
74 78 82 54 43 61 58 51 46 56 65 60 72 76 74 67 68 66 78 66 60 58 57 59 56 52 54 58 61 55 54 59 53 54 58 56 52 70 60 61 58 58 54 45 42 57 55
74 76 75 64 42 48 59 51 45 52 56 64 60 63 56 60 72 68 60 59 57 55 55 55 56 53 51 60 63 64 67 62 58 57 57 54 54 71 65 61 64 67 59 53 49 50 56
78 76 77 72 52 41 54 50 41 56 54 63 51 75 52 54 59 51 53 56 57 56 52 48 51 46 47 55 56 68 71 67 62 62 65 52 57 52 37 46 55 68 68 59 49 60 44
94 81 77 76 68 41 48 52 49 61 60 58 56 67 64 60 52 55 54 54 54 52 50 45 47 46 44 51 52 62 65 68 66 68 58 48 52 62 51 52 56 58 63 68 64 48 44
99 96 83 77 75 58 40 50 50 58 67 60 48 48 56 55 56 50 50 50 50 54 50 44 46 50 45 42 39 51 55 58 53 65 60 60 58 60 67 56 55 56 47 52 61 55 53
98 99 96 83 79 71 44 41 49 47 65 61 78 71 40 62 53 44 40 49 50 51 55 51 46 46 48 52 48 51 51 49 49 56 59 56 58 59 45 51 50 44 41 44 46 52 46
96 98 99 97 83 80 68 38 41 47 49 57 70 62 46 37 50 44 47 52 54 55 49 55 48 41 57 52 50 47 51 56 56 61 54 59 56 64 62 49 34 22 37 39 44 41 45
93 98 98 99 95 83 76 60 37 44 46 52 68 62 45 31 44 46 50 50 54 52 50 47 55 53 51 46 41 47 53 60 64 66 61 54 51 58 55 44 31 29 40 43 38 24 34
88 94 98 98 98 91 83 76 61 42 47 49 59 65 54 34 29 44 49 49 43 44 49 61 60 56 47 44 37 32 27 40 65 69 66 60 54 48 59 52 16 16 28 36 34 22 27
85 92 98 99 96 96 88 82 76 67 49 51 55 59 62 44 42 47 44 46 47 45 37 55 64 59 50 43 36 34 35 40 45 53 74 68 67 65 59 58 37 29 36 35 25 21 30
86 91 98 95 91 95 93 88 83 78 71 55 58 63 61 56 51 63 54 54 59 49 37 53 57 59 56 43 36 38 39 39 43 44 62 59 66 68 66 69 50 40 43 33 32 37 39
94 90 98 90 84 100 96 93 90 84 79 68 59 69 68 61 57 72 75 71 67 54 42 63 40 50 46 41 47 46 46 49 39 27 54 46 45 45 48 39 39 41 37 38 40 43 43

GFSGBSN_925_rhum_132.txt.gz
RH
92 92 94 95 94 93 96 94 92 89 86 87 86 87 91 97 94 91 82 98 98 83 80 80 78 79 78 80 83 88 71 70 76 74 52 36 36 43 45 41 37 34 34 31 30 29 27
90 94 94 96 96 95 97 96 93 92 88 88 88 91 94 95 93 92 92 79 84 86 75 67 69 69 73 77 93 96 75 72 73 69 44 37 33 35 34 36 40 35 35 32 29 26 24
91 91 94 96 96 96 93 97 94 94 91 90 93 96 78 94 79 63 91 97 99 83 79 68 66 78 73 91 92 97 75 65 61 66 43 35 30 36 28 39 30 35 39 35 30 27 28
87 88 89 96 96 94 90 96 94 95 93 90 93 71 87 88 65 59 75 77 83 90 88 79 76 71 95 97 87 88 82 67 51 54 46 37 31 28 30 32 31 35 36 49 32 29 32
94 92 87 92 96 96 95 95 92 82 91 95 95 95 82 80 57 56 77 69 66 75 81 83 73 66 94 82 76 93 82 77 50 48 38 32 26 32 30 42 56 37 70 43 37 29 28
93 92 90 89 96 95 96 96 91 72 73 78 76 77 64 64 57 50 59 63 64 64 66 66 80 80 82 81 79 81 85 74 73 68 40 35 36 42 40 47 73 50 50 38 42 34 30
94 95 95 90 96 96 96 96 76 72 62 67 62 64 57 55 65 58 64 62 65 80 84 99 94 86 86 82 77 67 69 72 75 56 57 46 52 58 39 36 29 32 37 42 44 37 29
98 96 97 95 95 98 96 96 90 62 55 53 56 59 56 53 58 58 60 66 84 82 96 85 82 85 93 95 73 61 61 70 72 65 44 54 60 34 28 26 27 29 35 47 42 35 36
99 98 98 99 99 100 99 98 93 59 44 49 57 60 54 50 54 62 61 82 87 83 94 91 92 91 95 85 79 72 62 51 49 56 45 59 44 35 29 27 28 28 37 46 56 38 30
98 100 97 97 100 100 99 100 98 77 56 50 58 60 52 48 59 59 70 81 78 78 99 100 94 90 84 74 80 53 52 53 42 41 43 46 37 34 32 43 40 48 32 35 42 52 69
95 95 98 99 97 98 98 99 100 97 63 62 56 59 59 56 63 55 70 80 73 84 92 98 91 82 82 68 61 53 45 49 40 41 49 51 43 40 55 50 41 48 29 31 34 34 37
95 94 98 99 99 98 99 97 100 100 80 56 61 57 59 73 67 70 64 75 71 93 96 99 91 78 64 57 54 53 42 38 34 48 52 58 46 50 46 41 39 38 35 32 34 51 76
92 97 95 94 98 100 100 99 96 100 96 55 59 59 64 73 72 80 80 71 95 92 86 90 92 67 47 48 41 43 46 45 58 79 86 56 57 50 44 48 41 42 49 96 79 68 86
76 96 95 91 82 92 82 98 99 96 78 57 59 61 74 72 75 80 72 80 88 87 84 71 68 51 57 44 43 37 40 46 40 46 83 87 73 59 47 48 45 47 53 92 68 78 87
72 99 99 93 52 60 66 58 75 74 57 58 60 70 73 75 69 77 74 89 96 72 58 59 59 54 50 44 52 46 44 47 51 42 62 81 88 54 50 44 51 46 69 44 57 41 76
77 100 100 82 55 53 57 60 53 51 67 61 72 60 62 60 59 76 77 78 67 53 50 49 56 58 52 46 45 41 41 47 54 46 44 48 80 50 54 49 48 52 42 62 84 68 55
77 99 100 76 55 46 56 57 49 43 56 64 80 65 71 68 73 71 94 68 54 46 49 54 51 48 46 48 42 42 48 48 46 47 44 38 57 65 52 55 52 51 52 48 52 61 83
85 79 86 78 67 44 53 52 44 54 49 66 66 81 65 70 75 64 89 53 48 51 50 51 54 45 46 44 45 43 54 57 46 46 44 43 50 81 55 53 50 53 48 36 56 53 49
95 87 79 80 74 51 43 56 48 56 51 81 67 53 59 58 87 73 52 52 49 49 48 49 49 47 43 48 55 51 62 51 51 59 63 52 55 83 64 60 54 58 48 46 45 53 58
96 98 93 82 78 68 40 50 46 56 63 64 64 87 58 50 47 43 47 48 52 50 46 43 44 41 46 48 46 58 64 59 53 55 62 60 50 63 65 64 54 57 52 50 50 80 50
92 98 98 90 82 75 49 39 47 52 60 76 55 65 56 64 49 42 40 40 47 50 46 39 42 40 39 49 51 55 61 66 58 60 50 51 57 59 43 44 47 51 55 56 62 57 52
88 93 98 98 91 80 69 40 42 42 49 77 70 56 51 45 42 41 46 37 37 46 44 38 41 38 37 45 47 54 53 52 53 57 49 47 62 51 68 43 43 47 45 53 57 53 51
85 88 96 98 98 85 76 61 41 42 52 55 52 49 51 53 41 37 41 42 42 41 48 42 38 34 50 52 47 45 42 45 48 50 50 45 61 67 52 38 41 50 46 43 50 47 50
95 85 89 97 98 94 80 73 59 44 46 71 67 62 57 43 38 37 36 40 44 46 45 44 42 39 52 39 37 38 42 44 46 51 50 49 50 65 82 53 51 28 32 38 37 34 35
80 85 84 90 97 98 88 79 73 58 46 64 68 70 59 50 33 37 39 41 46 47 46 51 55 48 44 40 44 50 52 45 50 53 49 52 47 64 79 59 36 30 32 38 40 35 28
80 82 82 85 91 98 94 84 78 72 56 63 63 60 67 56 40 35 37 39 44 45 51 61 53 46 44 50 43 38 44 42 67 68 53 53 52 63 55 52 40 34 33 30 29 38 35
77 82 86 82 87 97 94 91 83 79 73 60 66 58 73 62 40 44 45 46 38 38 53 58 62 60 50 56 48 38 38 37 61 62 78 69 60 72 68 65 51 32 36 31 32 36 35
74 77 83 88 84 92 94 94 89 84 79 70 73 61 70 72 54 53 50 46 46 46 42 61 62 62 64 60 44 39 41 40 36 41 61 65 76 73 62 64 62 39 38 41 42 41 40
72 74 76 88 82 88 91 99 96 90 83 75 74 74 61 76 73 65 70 64 65 60 54 55 49 47 53 54 48 44 44 42 36 38 39 54 46 52 54 57 42 36 45 46 42 42 41

GFSGBSN_925_rhum_135.txt.gz
RH
91 95 95 96 96 94 96 95 93 93 88 89 86 90 92 95 93 89 92 88 81 92 83 82 76 80 77 87 90 81 77 72 85 73 70 56 45 54 56 50 39 39 35 34 32 32 31
90 94 93 96 97 96 94 96 94 95 92 84 88 93 94 95 86 88 93 94 91 83 75 72 76 76 68 86 96 79 75 77 85 75 60 49 42 44 44 45 44 39 38 32 32 29 30
88 90 94 95 96 92 92 96 95 96 93 88 90 93 94 62 59 71 77 96 87 77 70 67 66 76 72 94 93 78 73 67 78 79 66 46 42 40 38 44 37 40 40 37 35 30 31
92 91 90 94 96 95 90 97 94 94 93 94 95 96 92 66 58 68 75 85 77 82 78 72 73 73 96 90 84 84 72 70 57 59 50 44 39 44 35 35 36 40 43 49 32 30 28
95 93 91 90 94 96 92 96 84 82 75 75 92 94 92 65 61 65 72 70 76 74 77 73 68 73 96 88 81 83 80 80 56 51 46 39 37 36 35 49 64 44 67 50 38 31 28
96 92 90 93 95 96 94 96 82 83 58 60 67 73 66 59 67 54 57 66 65 70 75 68 72 74 76 83 82 82 74 70 68 64 57 38 40 49 48 61 73 55 57 46 48 36 32
97 97 95 96 96 95 98 98 96 68 51 48 54 59 62 56 60 62 59 73 76 82 85 98 90 89 87 80 74 68 71 64 63 59 64 44 58 64 52 47 39 38 46 55 46 36 29
99 96 96 96 100 97 95 99 98 95 68 44 47 55 54 50 56 53 57 83 92 72 95 80 84 85 94 98 75 68 65 72 66 65 55 67 62 42 41 43 35 34 52 53 44 38 36
98 99 96 98 99 100 98 99 99 99 98 62 54 52 51 48 52 65 66 86 88 83 93 90 92 94 94 86 77 72 70 67 72 73 64 66 47 36 32 32 29 37 49 53 51 39 31
91 97 97 98 99 99 98 98 100 100 99 90 68 58 53 49 60 60 80 72 75 84 94 100 92 92 89 79 86 57 59 70 82 87 48 44 37 36 41 48 45 40 38 45 49 51 52
96 94 95 93 97 100 98 99 99 100 100 92 73 64 58 69 65 69 79 75 74 83 93 97 91 84 82 80 75 62 54 62 69 58 45 60 49 55 58 50 47 39 36 43 42 37 45
95 96 95 95 95 97 99 100 100 99 100 96 65 67 62 72 70 70 68 73 75 84 96 100 92 83 75 59 56 54 52 54 44 54 55 58 48 53 48 46 42 38 38 57 63 60 63
77 99 99 94 94 96 99 99 99 97 97 74 59 61 68 73 76 76 76 79 84 94 91 93 93 78 68 70 60 48 50 51 68 75 85 64 63 51 48 46 45 43 64 82 51 60 58
76 100 98 98 93 67 78 98 99 99 53 54 53 59 67 73 68 72 80 82 90 90 99 71 72 63 69 62 54 48 52 55 49 56 90 84 70 65 54 49 49 50 71 70 45 71 73
79 99 99 98 61 51 58 65 98 98 52 52 54 68 75 73 69 74 84 95 96 78 70 72 69 60 57 50 52 48 51 57 59 50 70 84 86 56 55 50 46 40 71 48 60 57 72
81 100 100 99 68 48 53 61 97 95 72 55 54 72 69 70 69 76 85 82 72 55 53 59 71 72 57 49 52 47 52 52 57 49 48 56 83 56 55 52 47 46 46 48 76 56 54
91 84 100 96 78 54 49 54 68 98 61 54 73 84 71 64 73 78 89 71 61 48 51 58 60 54 49 50 48 50 61 56 52 48 46 44 64 69 54 59 54 50 56 53 60 75 77
93 92 90 84 84 70 45 53 54 71 55 72 78 90 69 70 79 87 89 57 58 55 52 55 55 51 50 53 58 70 73 64 54 54 55 46 63 86 62 55 52 55 53 45 63 54 59
94 98 95 89 83 77 48 46 49 58 61 68 86 70 68 66 82 84 57 57 55 54 51 52 52 50 47 53 62 64 71 55 58 62 61 58 65 84 67 58 59 53 50 48 52 65 57
92 97 99 98 90 79 64 42 47 52 62 66 78 87 81 68 65 56 52 55 62 51 49 45 46 44 49 52 50 68 75 62 55 57 63 59 60 62 53 48 61 65 60 54 54 79 55
86 90 98 98 98 82 74 52 43 42 50 76 78 74 62 73 57 47 43 45 52 56 48 42 45 42 43 56 56 68 71 72 62 56 54 54 62 58 47 48 50 54 58 61 60 53 50
82 86 95 98 100 90 79 67 45 40 52 64 74 68 67 58 48 44 46 41 44 48 50 41 47 42 49 56 57 60 64 63 64 61 54 51 64 54 61 44 44 46 47 61 62 57 57
81 83 86 96 98 98 84 74 59 40 50 63 62 58 61 57 50 46 49 44 45 52 49 45 43 44 56 55 49 48 52 56 58 62 58 52 62 72 52 40 42 33 49 50 62 60 55
82 80 81 87 97 99 93 79 70 50 54 72 68 72 72 54 45 46 40 43 48 50 53 51 56 49 52 42 40 42 49 55 57 60 55 54 61 75 82 52 32 18 32 38 48 55 47
80 79 82 81 87 98 96 88 76 67 50 56 57 73 74 62 42 40 42 51 51 47 51 62 62 57 49 44 53 59 64 49 60 62 64 60 60 73 70 70 37 31 29 41 46 45 34
78 78 82 82 82 90 97 94 83 74 62 64 59 66 79 64 46 42 43 44 58 59 58 68 56 52 49 60 50 44 53 56 70 71 62 59 63 60 67 45 42 29 33 32 27 31 39
79 75 77 86 80 84 97 93 89 80 72 63 66 61 75 72 53 50 51 52 44 47 69 69 65 60 54 67 54 45 41 45 60 71 72 73 68 71 72 69 55 34 34 30 22 22 40
76 76 76 79 88 80 88 94 95 86 78 69 70 63 63 84 71 61 62 53 52 52 58 64 59 63 72 64 56 49 43 40 41 60 68 64 80 77 72 68 56 40 37 31 36 46 45
81 77 75 76 81 89 83 91 99 95 83 73 77 76 62 76 76 62 68 64 65 63 61 66 56 62 65 64 59 55 45 49 42 44 45 57 58 67 60 59 45 41 41 44 44 46 43

GFSGBSN_925_rhum_138.txt.gz
RH
88 86 94 96 92 96 97 91 95 95 92 83 85 92 92 95 94 94 95 99 87 92 81 80 75 82 74 85 86 92 90 78 81 89 72 63 49 56 68 57 41 40 35 34 33 34 33
88 88 85 94 96 85 94 96 94 95 92 88 89 93 95 95 95 84 75 99 90 74 76 78 78 80 80 92 95 94 79 83 90 70 69 57 45 48 50 50 46 38 37 34 34 33 32
90 88 86 89 90 81 89 97 93 91 86 94 94 94 95 95 75 71 68 82 79 73 67 69 78 83 84 92 93 88 77 76 89 73 66 55 50 45 43 48 40 41 38 38 37 34 30
92 93 92 89 86 85 96 93 93 78 82 90 96 83 95 95 75 72 68 73 74 80 70 69 73 77 92 92 91 80 73 72 83 79 63 45 44 46 42 38 37 42 44 46 35 32 26
92 94 92 92 89 92 94 92 95 80 71 77 70 64 65 66 73 74 77 64 74 74 72 66 65 69 91 77 81 81 72 79 70 66 60 52 41 45 38 54 67 54 69 48 39 33 28
96 93 93 96 91 93 95 98 97 93 74 63 56 57 56 54 60 71 66 68 70 66 64 62 71 67 76 85 81 76 69 69 70 89 70 46 48 51 55 62 76 62 62 48 47 36 31
97 96 96 96 96 97 96 98 100 99 95 62 52 53 56 53 52 54 66 76 74 77 79 94 89 86 86 79 72 71 68 65 66 74 88 48 60 66 53 43 46 47 46 49 45 36 32
94 99 97 94 93 100 99 96 100 98 98 82 56 54 54 50 52 56 60 86 85 73 91 78 81 85 94 95 76 71 64 71 68 77 76 66 68 48 44 44 40 48 55 56 46 38 33
93 96 98 98 96 100 99 98 99 99 100 78 58 60 58 56 54 63 64 85 80 69 94 88 90 91 91 93 77 73 72 65 69 76 80 65 48 39 42 42 34 42 49 57 52 41 31
96 96 90 92 96 99 100 99 100 100 99 100 58 60 59 62 64 68 77 72 80 90 92 99 93 93 86 85 83 71 70 72 83 73 64 46 38 37 44 45 44 45 40 47 52 45 58
96 99 90 91 97 98 98 98 98 99 99 100 84 58 62 71 70 73 75 77 79 80 89 96 92 84 83 88 86 72 76 68 83 77 51 54 51 53 51 49 46 43 46 45 42 45 41
95 99 100 96 95 98 98 95 100 99 99 100 92 59 64 76 74 76 73 77 75 78 94 99 83 78 89 80 82 79 87 77 58 56 56 59 52 53 48 48 43 42 50 52 53 50 60
81 99 100 99 97 95 94 84 99 99 100 88 62 59 65 75 78 77 77 80 84 94 84 97 97 73 79 94 83 70 82 85 94 80 82 66 62 60 51 43 40 49 53 74 54 62 58
81 98 99 99 99 83 95 64 88 98 96 73 59 58 67 74 74 71 77 82 91 90 87 76 90 80 90 65 57 61 62 61 53 62 84 82 72 66 60 48 45 55 52 68 40 59 64
86 100 98 98 100 64 73 95 98 80 76 68 54 69 72 74 78 76 78 96 88 84 75 75 77 81 66 57 57 55 56 60 58 51 66 77 79 58 55 54 46 44 68 53 62 68 69
91 85 99 100 86 64 52 80 99 80 75 65 62 70 73 78 72 76 84 83 73 58 60 69 80 66 62 53 53 49 56 55 53 49 48 56 81 58 53 49 45 40 46 56 77 57 43
94 94 100 97 82 70 46 54 88 70 52 62 78 80 80 74 72 78 87 74 61 50 52 64 60 60 50 54 52 56 63 59 57 49 45 52 59 69 50 59 52 54 54 58 62 71 74
93 98 96 92 81 77 52 44 54 61 59 81 84 69 79 78 77 88 88 59 54 57 53 58 54 50 50 54 59 72 70 63 60 55 55 53 69 84 59 57 55 58 50 50 54 46 66
91 98 100 99 89 78 66 45 46 53 66 69 84 75 79 76 77 84 63 58 56 56 54 54 55 50 48 55 68 72 70 60 60 60 60 56 66 80 56 46 51 56 52 50 59 65 57
88 92 99 98 99 82 73 58 45 46 55 76 78 72 74 71 70 63 57 61 61 51 50 46 49 46 51 55 60 75 76 66 61 58 61 56 67 52 52 42 52 56 60 54 54 78 58
82 88 95 98 98 94 76 66 50 45 52 76 82 69 64 67 56 50 48 49 58 57 48 44 46 43 45 62 60 77 76 72 64 57 54 54 64 59 49 49 53 55 57 63 58 46 49
82 82 89 97 98 99 82 68 58 45 58 56 68 67 68 62 52 46 51 44 48 50 51 44 48 54 49 56 55 68 72 72 62 63 55 55 63 50 60 44 43 45 51 64 63 55 55
81 78 83 91 98 100 87 72 68 45 51 64 71 65 61 61 54 49 51 45 49 48 48 51 46 54 59 58 51 53 57 61 62 66 62 56 63 69 46 48 42 31 44 59 67 62 55
81 78 79 84 92 98 95 76 71 58 51 60 68 77 69 54 49 47 44 45 50 52 54 57 57 51 54 44 44 45 54 59 61 66 61 61 67 76 82 43 27 20 35 39 58 61 58
80 79 77 80 84 93 97 87 74 69 58 54 58 72 70 59 48 43 46 54 50 54 57 61 63 62 57 47 57 58 64 43 58 67 68 62 64 77 68 58 34 35 34 45 44 37 57
78 76 77 82 78 85 96 92 84 74 66 64 62 68 75 59 46 42 46 48 60 62 62 66 58 55 54 61 52 46 56 48 66 64 63 63 66 54 72 38 27 27 32 34 25 32 39
79 78 76 77 81 77 87 96 90 83 73 66 66 65 73 70 61 51 54 52 52 59 69 71 63 60 55 67 53 50 44 53 61 68 64 66 68 70 73 69 53 39 35 30 22 18 42
84 76 76 77 79 78 79 89 92 88 78 66 72 68 67 82 76 64 64 52 53 56 58 64 63 68 75 65 60 54 48 46 54 61 67 60 76 78 73 65 39 42 37 29 30 46 46
86 80 77 78 78 84 78 80 89 79 84 66 75 75 66 72 74 68 68 65 63 59 68 73 53 68 64 66 69 61 53 55 45 42 58 57 51 58 54 47 40 45 32 42 48 50 45

GFSGBSN_925_rhum_141.txt.gz
RH
82 82 84 81 85 83 84 96 96 96 94 90 89 91 91 92 92 87 94 94 94 82 80 81 78 82 83 85 85 84 81 91 93 96 87 60 58 62 75 71 45 41 36 33 35 38 34
82 84 84 82 79 82 84 96 96 91 95 95 92 95 96 96 94 82 75 88 87 70 75 78 82 80 74 91 82 82 87 87 89 76 89 61 52 51 58 60 47 39 38 35 36 34 34
87 87 88 82 86 86 84 86 94 95 94 94 95 96 93 96 93 70 68 82 74 73 69 75 80 81 82 82 88 90 98 84 100 86 86 54 50 46 49 54 40 40 36 36 39 35 31
88 92 90 87 87 85 89 90 91 91 91 94 92 71 64 64 68 67 66 82 71 78 76 73 71 71 93 92 91 94 80 81 99 91 86 64 48 46 48 42 41 40 44 49 36 36 27
90 93 92 92 93 89 91 96 96 95 78 86 68 58 56 59 61 71 70 61 71 73 68 71 74 75 90 78 86 83 75 82 89 91 78 70 52 47 41 56 67 58 65 47 39 36 29
96 95 93 95 95 89 92 95 98 99 96 87 66 53 53 55 54 61 63 65 64 71 63 64 64 65 76 86 79 74 70 70 81 83 80 68 52 55 60 66 69 64 60 47 47 36 33
93 96 95 95 95 92 94 97 100 99 99 99 96 65 57 55 51 59 67 68 70 78 78 97 93 84 85 80 71 69 69 69 70 69 94 77 60 69 58 48 51 52 45 48 44 35 33
92 94 98 95 95 99 98 95 100 100 99 100 100 89 63 58 56 59 66 77 79 74 94 78 80 82 89 94 79 71 64 75 79 86 86 90 70 51 48 47 47 46 52 55 46 37 33
94 94 89 93 91 94 100 100 99 100 98 99 100 96 79 62 59 64 69 85 72 74 86 87 88 91 89 95 78 76 74 70 76 84 95 98 49 47 44 43 46 48 48 58 51 40 33
94 98 89 91 92 93 97 97 98 94 95 98 100 93 78 62 66 68 76 74 81 88 93 98 92 86 84 80 86 69 70 75 78 93 94 78 42 40 45 47 44 45 43 48 53 50 61
95 98 98 98 95 95 94 98 96 98 100 98 99 98 84 67 72 74 78 76 77 74 90 92 92 84 84 85 84 75 77 71 81 86 72 70 51 46 47 47 42 41 46 48 40 46 44
92 98 98 100 96 95 97 97 98 97 99 99 100 94 82 77 75 75 72 74 72 79 92 98 86 91 95 88 82 79 84 76 69 76 62 66 53 54 50 48 42 51 42 44 49 54 59
90 99 100 99 99 93 83 93 99 99 98 98 91 72 80 74 78 77 76 77 84 94 74 92 98 90 89 96 93 88 86 91 93 79 82 64 59 60 54 46 41 42 53 75 65 67 66
90 99 100 98 99 90 61 62 98 100 100 76 62 68 73 74 75 76 77 78 92 88 97 91 86 76 94 87 93 90 79 87 58 66 85 81 75 64 62 52 51 51 44 70 52 59 63
90 100 99 98 100 73 57 60 95 100 100 74 54 72 78 78 79 75 79 95 90 83 77 86 86 87 68 63 86 76 64 64 58 55 60 75 76 59 56 56 46 46 66 49 66 68 71
92 93 98 98 95 76 51 53 77 97 83 56 61 76 81 80 75 76 84 83 75 62 70 71 80 65 67 57 58 56 56 56 53 51 48 57 77 60 52 48 45 41 52 62 79 60 36
89 93 99 99 92 80 58 47 49 58 66 65 75 84 87 82 77 77 86 78 61 52 53 66 66 64 53 57 52 60 66 62 58 49 47 53 59 67 48 58 51 51 55 63 63 68 70
86 92 98 99 98 85 72 52 43 44 57 75 83 66 87 82 78 89 87 61 54 57 55 62 59 50 53 56 67 71 71 66 62 57 54 53 64 75 54 59 57 58 46 54 54 44 70
84 88 95 100 98 90 78 67 49 46 51 66 84 80 89 84 76 83 66 59 57 57 56 56 56 51 50 58 68 74 70 62 63 61 58 54 64 73 50 44 50 58 57 51 59 63 61
82 85 90 99 98 99 82 72 58 48 57 76 80 77 77 76 71 66 62 63 59 53 52 49 51 48 52 59 69 77 75 67 62 58 62 54 68 48 50 40 51 56 59 57 54 78 58
79 82 85 94 98 100 88 74 62 48 56 80 81 63 66 66 56 56 54 58 61 57 49 45 46 49 50 64 65 79 78 70 63 62 55 53 67 60 51 50 57 54 53 64 57 45 45
80 78 82 87 97 99 95 74 68 47 63 58 65 71 71 65 57 47 50 48 53 54 50 45 50 57 52 56 57 72 72 71 55 64 55 57 64 48 54 44 44 44 51 66 65 54 53
80 78 82 83 91 98 100 81 70 48 55 63 78 70 62 64 58 50 52 45 49 49 52 53 46 54 65 59 54 60 63 69 65 66 64 57 62 62 46 56 41 34 37 59 69 64 57
79 80 79 82 84 96 99 87 72 60 49 54 69 77 67 54 53 50 45 46 53 53 52 58 56 52 54 48 49 46 52 61 64 70 61 64 63 73 76 35 38 27 36 40 62 61 62
79 80 78 81 80 86 98 90 78 69 59 53 61 73 68 53 52 45 50 56 52 55 64 59 64 62 61 46 56 50 55 37 55 70 70 61 65 76 63 49 30 32 39 45 45 28 56
80 80 78 78 84 80 88 90 86 75 64 61 64 70 69 58 47 43 50 51 59 61 63 64 59 58 56 61 51 45 50 35 58 62 61 63 62 49 71 32 18 18 31 36 30 33 44
81 78 76 76 79 79 81 89 91 82 70 65 64 66 69 69 63 52 56 55 59 63 67 72 63 59 55 63 51 52 49 55 60 62 72 69 71 67 71 61 46 31 34 36 21 16 43
84 83 77 76 76 82 77 84 88 84 76 66 69 64 64 80 74 66 68 54 56 62 63 63 63 68 76 61 57 57 50 55 59 58 65 59 72 78 73 63 34 40 38 33 28 46 46
90 87 82 76 73 78 84 76 82 88 82 68 73 71 65 69 70 70 67 66 68 65 69 77 49 67 66 68 73 64 55 59 48 38 62 50 44 50 52 45 33 43 32 37 49 49 44

GFSGBSN_925_rhum_144.txt.gz
RH
81 82 79 78 78 77 83 84 96 96 96 94 93 91 91 96 96 96 94 93 95 93 76 81 74 84 89 89 83 82 80 76 91 85 88 84 78 67 80 78 49 45 38 34 36 39 36
81 85 78 80 82 81 83 85 88 95 96 96 94 95 96 90 95 95 94 87 84 86 72 80 83 86 78 94 83 83 82 80 85 99 94 93 61 58 65 70 51 43 36 35 36 33 33
87 87 86 81 83 87 87 88 92 90 96 96 95 96 86 69 72 71 68 87 75 84 81 80 80 76 82 88 87 74 92 91 90 92 84 85 69 55 58 65 41 41 38 36 39 38 30
86 88 87 83 86 88 90 93 92 97 96 96 94 85 76 66 63 64 68 69 67 77 75 81 80 75 86 87 81 88 87 98 99 91 67 82 86 58 55 47 44 41 45 51 36 38 28
92 92 92 92 90 90 91 95 97 99 99 96 94 66 64 62 60 56 62 64 66 74 70 71 76 77 82 81 97 93 98 98 100 98 76 97 77 54 42 57 67 58 68 50 40 34 30
91 93 90 96 96 96 95 97 99 100 100 99 99 93 62 59 56 53 57 66 63 64 63 66 65 70 64 83 79 82 90 91 94 93 92 82 88 62 56 67 72 64 61 49 48 36 34
88 92 97 97 94 96 100 100 96 100 100 100 98 100 94 65 59 58 58 66 71 75 78 96 93 91 81 81 71 73 75 93 85 81 92 91 100 79 56 57 52 51 46 52 44 38 35
94 91 92 95 96 96 95 100 100 100 100 100 100 100 100 82 63 63 63 78 85 76 89 77 82 79 83 93 84 74 66 84 78 92 89 95 89 52 48 51 46 44 47 56 44 41 36
92 95 95 89 88 95 96 96 95 99 97 96 100 100 100 98 67 68 71 84 75 70 89 84 82 90 87 94 86 82 75 75 79 87 93 98 87 60 46 50 47 47 46 56 51 38 37
86 94 96 98 96 95 96 94 97 96 98 100 100 99 100 75 70 69 76 76 82 80 90 91 87 85 84 82 84 70 77 77 77 90 88 94 62 51 48 46 46 45 43 48 52 50 61
86 92 99 100 99 96 96 96 98 100 100 99 98 100 100 76 73 74 75 72 73 65 89 79 88 87 81 84 86 79 74 77 84 89 90 90 70 47 50 46 42 46 48 48 41 44 48
86 94 98 99 100 99 96 96 97 97 99 98 100 100 97 80 76 76 74 74 71 78 94 97 88 86 84 85 79 76 76 75 72 81 74 79 57 60 53 51 46 53 41 47 53 52 58
86 92 98 100 100 99 97 95 97 99 99 100 99 84 91 77 78 76 76 74 85 92 69 87 98 93 95 92 82 82 83 94 96 94 98 85 60 59 52 51 44 40 55 79 67 69 66
85 92 100 100 99 98 96 89 99 100 100 100 70 75 75 80 80 78 76 75 82 85 93 84 88 91 99 93 92 94 96 93 72 69 89 95 88 62 62 52 55 47 45 74 59 68 66
85 90 100 100 98 100 97 83 100 100 100 94 68 75 79 82 80 78 79 94 90 78 77 92 82 82 88 93 90 86 78 67 60 63 60 72 77 60 58 56 45 45 66 46 69 67 73
84 89 94 99 99 97 82 66 83 84 82 63 65 76 88 84 83 77 84 82 77 69 73 73 83 66 69 64 76 67 66 58 56 52 49 57 77 61 52 50 48 44 54 61 78 56 43
81 87 90 98 98 91 83 69 56 54 67 72 79 84 93 87 80 79 86 79 67 55 56 70 72 65 57 61 54 63 70 61 60 55 49 55 58 63 50 57 51 50 54 66 63 67 61
83 85 91 97 99 98 88 75 65 49 64 79 83 68 94 85 82 90 89 66 56 59 57 63 64 55 55 59 72 71 69 64 66 61 56 56 64 75 55 61 59 60 44 49 54 42 72
82 82 88 95 99 98 96 79 74 53 60 69 83 88 96 86 76 84 69 61 59 60 59 59 59 53 52 62 68 73 71 64 61 59 54 52 61 71 51 45 52 58 59 54 57 63 63
82 81 85 90 99 98 99 84 76 57 69 80 81 82 82 79 75 65 65 63 59 54 55 51 54 50 53 62 72 77 76 68 63 59 61 55 65 47 59 43 53 57 59 58 53 75 52
80 80 82 85 94 98 100 88 76 56 63 80 79 61 69 66 57 61 57 62 63 58 50 47 48 52 53 67 68 75 79 71 63 62 55 55 63 61 54 53 58 51 53 67 59 47 43
81 78 83 80 87 98 100 92 78 58 75 62 72 70 74 68 60 51 52 60 58 55 52 46 50 59 53 60 59 70 71 71 57 62 54 54 69 51 62 45 44 46 55 64 66 55 51
81 80 83 79 81 90 99 93 78 64 72 65 83 74 62 66 60 53 54 46 52 53 54 55 49 56 62 60 57 61 66 74 68 63 62 57 65 67 55 55 44 40 42 62 68 64 56
82 78 79 80 79 83 96 94 82 72 60 56 65 76 68 55 57 54 46 49 56 54 49 58 54 51 56 55 54 47 52 66 66 71 62 58 58 71 69 35 46 30 35 39 60 60 62
82 78 77 77 81 79 86 90 86 76 65 58 62 73 65 51 54 47 54 57 56 58 66 58 65 64 62 46 50 43 48 35 55 72 72 60 60 71 58 45 31 24 40 46 47 27 57
80 80 76 77 74 80 81 89 88 82 72 66 64 71 67 59 50 43 55 53 60 61 63 66 61 61 54 62 49 40 38 32 46 58 61 63 60 46 66 28 16 14 30 35 29 28 29
83 80 78 77 75 80 82 85 90 87 79 71 66 69 69 66 63 52 57 58 62 64 65 73 65 61 54 61 50 52 54 52 60 54 72 73 74 64 68 56 40 28 35 38 19 15 41
93 82 78 76 76 79 84 78 86 88 82 72 72 67 68 78 75 65 63 59 60 67 64 68 61 66 75 56 54 56 50 56 60 56 67 64 71 76 73 56 31 40 39 32 27 43 45
95 89 83 78 74 77 80 81 80 84 86 77 74 75 68 70 70 74 69 67 66 53 67 79 49 68 66 66 72 64 56 63 51 39 64 50 42 48 53 44 30 43 34 35 45 47 45